sat.trackr.live / text

‹ back to catalog

STARLINK-2633

NORAD 48435 · 2021-040H

PAYLOAD ACTIVE UNKNOWN

§ Identity

Operator
Country
US
Launch date
2021-05-09
Launch site
AFETR
Launch vehicle
Mass (kg)
RCS (m²)

Purposes: comms

External: N2YO · Heavens-Above · Gunter

§ Orbital elements

Epoch: 2026-09-13T03:04:58.296000Z

Period
94.01 min
Inclination
53.1600°
Eccentricity
0.0001350
Mean motion
15.31695966 rev/d
Perigee alt
469.8 km
Apogee alt
471.7 km
Semi-major
6,848.9 km
B*
-2.1052e-4
RAAN
12.9725°
Arg perigee
85.9890°
Mean anomaly
274.1265°
Rev number
29,557

§ Raw data

STARLINK-26331 48435U 21040H   26256.12845250 -.00006891  00000+0 -21052-3 0  99972 48435  53.1600  12.9725 0001350  85.9890 274.1265 15.31695966295571

JSON: /api/v1/satellites/48435 · /tle

For live sub-satellite position, see the globe view (requires WebGL).

§ Visibility from observer

Set your observer location to see the next 7 days of passes ≥ 10°. The values pass through the URL so the page stays shareable.

No JS? Fill the form by hand. The geolocation button needs JavaScript.